Victoria, TX

1:44 PM CST on December 07, 2019 (GMT -0600)
Victoria Regional

Weather History for KVCT - October, 2019

Change the Weather History Date:

Wednesday, October 30, 2019

  Actual Average Record
Temperature  
Mean Temperature 58 °F 68 °F  
Max Temperature 68 °F 80 °F 93 °F (1938)
Min Temperature 46 °F 57 °F 35 °F (1993)
Degree Days  
Heating Degree Days 6 2  
Month to date heating degree days 23 18  
Since 1 July heating degree days 23 19  
Cooling Degree Days 0 5  
Month to date cooling degree days 296 239  
Year to date cooling degree days 3561 3037  
Growing Degree Days 8 (Base 50)    
Moisture  
Dew Point 52 °F    
Average Humidity 92    
Maximum Humidity 94    
Minimum Humidity 86    
Precipitation  
Precipitation 1.25 in 0.13 in 1.65 in (1979)
Month to date precipitation 4.50 4.51  
Year to date precipitation 23.86 35.54  
Snow  
Snow - 0.00 in 0.00 in (2002)
Month to date snowfall 0.0 0.0  
Since 1 July snowfall 0.0 0.0  
Since 1 September snowfall 0.0 0.0  
Snow Depth 0.00 in    
Sea Level Pressure  
Sea Level Pressure 30.01 in    
Wind  
Wind Speed 11 mph ()    
Max Wind Speed 29 mph    
Max Gust Speed 39 mph    
Visibility 4.6 miles    
Events Rain , Thunderstorm    
T = Trace of Precipitation, MM = Missing Value Source: Averaged Metar Reports

Daily Weather History Graph

Daily Weather History Graph

Search for Another Location

Airport or City:

Astronomy

Oct. 30, 2019 Rise Set
Actual Time 7:38 AM CDT 6:43 PM CDT
Civil Twilight 7:14 AM CDT 7:08 PM CDT
Nautical Twilight 6:46 AM CDT 7:36 PM CDT
Astronomical Twilight 6:18 AM CDT 8:03 PM CDT
Moon 10:13 AM CDT (10/30) 9:03 PM CDT (10/30)
Length of Visible Light 11h 54m
Length of Day
11h 05m
Waxing Crescent, 9% of the Moon is Illuminated
Oct 30
Waxing Crescent
Nov 4
First Quarter
Nov 12
Full
Nov 19
Last Quarter
Nov 26
New

Hourly Weather History & Observations

Time (CDT) Temp. Windchill Dew Point Humidity Pressure Visibility Wind Dir Wind Speed Gust Speed Precip Events Conditions
12:02 AM 71.1 °F - 69.1 °F 93% 29.89 in 1.2 mi NNW 9.2 mph - N/A   Overcast
12:35 AM 68.0 °F - 66.0 °F 93% 29.89 in 1.8 mi NNW 8.1 mph - 0.00 in   Overcast
12:44 AM 68.0 °F - 66.0 °F 93% 29.89 in 2.0 mi North 6.9 mph - 0.00 in   Overcast
12:51 AM 68.0 °F - 66.0 °F 93% 29.89 in 2.0 mi NNW 6.9 mph - 0.00 in   Overcast
12:58 AM 68.0 °F - 66.0 °F 93% 29.89 in 1.8 mi North 9.2 mph - N/A   Overcast
1:09 AM 68.0 °F - 64.9 °F 90% 29.89 in 2.0 mi North 6.9 mph - N/A   Overcast
1:18 AM 68.0 °F - 64.9 °F 90% 29.89 in 1.8 mi North 5.8 mph - N/A   Overcast
1:34 AM 66.9 °F - 64.9 °F 93% 29.89 in 2.0 mi North 8.1 mph - 0.00 in   Overcast
1:51 AM 66.9 °F - 64.0 °F 90% 29.88 in 2.0 mi NNW 8.1 mph - 0.00 in Rain Rain
2:18 AM 64.9 °F - 63.0 °F 93% 29.88 in 3.0 mi North 9.2 mph - 0.01 in Rain Light Rain
2:51 AM 64.0 °F - 61.0 °F 90% 29.88 in 2.5 mi North 8.1 mph - 0.02 in   Overcast
3:07 AM 63.0 °F - 61.0 °F 93% 29.88 in 3.0 mi North 10.4 mph - N/A   Overcast
3:16 AM 62.1 °F - 60.1 °F 93% 29.87 in 2.5 mi North 8.1 mph - 0.01 in Rain Rain
3:24 AM 62.1 °F - 60.1 °F 93% 29.87 in 4.0 mi North 9.2 mph - 0.01 in Rain Light Rain
3:51 AM 62.1 °F - 59.0 °F 90% 29.88 in 7.0 mi NNW 9.2 mph - 0.02 in   Overcast
4:51 AM 59.0 °F - 57.0 °F 93% 29.88 in 8.0 mi North 8.1 mph - N/A   Overcast
5:51 AM 57.0 °F - 55.0 °F 93% 29.89 in 9.0 mi NNW 13.8 mph - 0.01 in   Overcast
6:51 AM 55.9 °F - 54.0 °F 93% 29.90 in 5.0 mi North 11.5 mph - N/A   Overcast
7:51 AM 55.0 °F - 53.1 °F 93% 29.92 in 7.0 mi North 9.2 mph - N/A   Overcast
8:51 AM 55.0 °F - 53.1 °F 93% 29.94 in 4.0 mi North 13.8 mph - 0.01 in   Overcast
9:09 AM 55.0 °F - 53.1 °F 93% 29.95 in 2.0 mi North 11.5 mph - N/A   Overcast
9:51 AM 54.0 °F - 52.0 °F 93% 29.97 in 2.0 mi North 11.5 mph - N/A   Overcast
10:51 AM 53.1 °F - 51.1 °F 93% 29.98 in 3.0 mi North 13.8 mph 19.6 mph N/A   Overcast
11:51 AM 54.0 °F - 51.1 °F 90% 29.98 in 5.0 mi North 15.0 mph - N/A   Overcast
12:08 PM 54.0 °F - 52.0 °F 93% 29.98 in 5.0 mi North 9.2 mph - N/A   Overcast
12:51 PM 54.0 °F - 51.1 °F 90% 29.97 in 5.0 mi North 17.3 mph 23.0 mph N/A   Overcast
1:51 PM 53.1 °F - 51.1 °F 93% 29.96 in 10.0 mi North 13.8 mph 20.7 mph 0.00 in   Overcast
2:51 PM 53.1 °F - 50.0 °F 89% 29.95 in 10.0 mi North 15.0 mph - N/A   Overcast
3:51 PM 52.0 °F - 48.9 °F 89% 29.95 in 10.0 mi North 16.1 mph 23.0 mph 0.00 in   Overcast
4:51 PM 51.1 °F - 48.0 °F 89% 29.99 in 10.0 mi NNW 16.1 mph 25.3 mph N/A   Overcast
5:34 PM 50.0 °F - 48.0 °F 93% 30.01 in 10.0 mi NNW 13.8 mph 25.3 mph 0.01 in   Overcast
5:48 PM 50.0 °F - 48.2 °F 94% 30.02 in 5.0 mi NNW 13.8 mph 25.3 mph 0.02 in Rain Light Rain
5:51 PM 50.0 °F - 48.0 °F 93% 30.02 in 8.0 mi NNW 12.7 mph - 0.02 in Rain Light Rain
6:51 PM 50.0 °F - 46.9 °F 89% 30.04 in 7.0 mi North 13.8 mph 25.3 mph 0.04 in Rain Rain
7:51 PM 48.9 °F - 46.0 °F 90% 30.08 in 10.0 mi NNW 18.4 mph 29.9 mph 0.01 in   Overcast
8:13 PM 48.9 °F - 46.0 °F 90% 30.09 in 2.5 mi North 24.2 mph 34.5 mph 0.05 in Rain , Thunderstorm Rain
8:15 PM 48.0 °F - 46.0 °F 93% 30.10 in 1.8 mi North 27.6 mph 36.8 mph 0.07 in Rain , Thunderstorm Thunderstorms and Rain
8:23 PM 48.0 °F - 46.0 °F 93% 30.10 in 1.2 mi NNW 16.1 mph 36.8 mph 0.26 in Rain , Thunderstorm Thunderstorms and Rain
8:27 PM 48.0 °F - 46.0 °F 93% 30.12 in 2.0 mi NNW 19.6 mph 27.6 mph 0.30 in Rain , Thunderstorm Thunderstorms and Rain
8:30 PM 48.0 °F - 46.0 °F 93% 30.11 in 4.0 mi North 17.3 mph 26.5 mph 0.31 in Rain Rain
8:42 PM 48.0 °F - 46.0 °F 93% 30.10 in 1.8 mi North 23.0 mph 33.4 mph 0.40 in Rain Rain
8:45 PM 48.2 °F - 44.6 °F 87% 30.11 in 1.2 mi North 24.2 mph 34.5 mph 0.45 in Rain Rain
8:51 PM 46.9 °F - 45.0 °F 93% 30.14 in 1.2 mi North 25.3 mph 39.1 mph 0.58 in Rain Rain
9:00 PM 46.9 °F - 45.0 °F 93% 30.12 in 2.0 mi North 25.3 mph 35.7 mph 0.17 in Rain Rain
9:11 PM 46.9 °F - 45.0 °F 93% 30.12 in 3.0 mi North 21.9 mph 32.2 mph 0.24 in Rain Rain
9:22 PM 46.9 °F - 45.0 °F 93% 30.14 in 1.8 mi NNW 21.9 mph 31.1 mph 0.32 in Rain Rain
9:34 PM 46.9 °F - 45.0 °F 93% 30.15 in 2.0 mi North 17.3 mph 29.9 mph 0.44 in Rain Rain
9:38 PM 46.9 °F - 45.0 °F 93% 30.15 in 2.5 mi North 16.1 mph 24.2 mph 0.47 in Rain Rain
9:46 PM 46.4 °F 39.5 °F 44.6 °F 93% 30.16 in 4.0 mi North 17.3 mph 25.3 mph 0.49 in Rain Rain
9:51 PM 46.9 °F - 45.0 °F 93% 30.17 in 4.0 mi NNW 19.6 mph 26.5 mph 0.50 in Rain Rain
10:14 PM 46.9 °F - 44.1 °F 90% 30.18 in 10.0 mi North 20.7 mph 32.2 mph 0.04 in Rain Light Rain
10:51 PM 46.9 °F - 43.0 °F 86% 30.19 in 10.0 mi North 21.9 mph 32.2 mph 0.04 in   Overcast
11:34 PM 46.9 °F - 43.0 °F 86% 30.22 in 10.0 mi North 18.4 mph 28.8 mph N/A   Overcast
11:51 PM 46.9 °F - 43.0 °F 86% 30.22 in 10.0 mi NNW 18.4 mph 26.5 mph N/A   Overcast